www.pogodaiklimat.ru

Погода и климат >> Архив погоды >> Индия >> Maharana Pratap Airport


ПОГОДА в Maharana Pratap Airport

  • Прогноз погоды в Maharana Pratap Airport
  • Монитор погоды в Maharana Pratap Airport
  • Климат города

АРХИВ ПОГОДЫ в Maharana Pratap Airport

Время (UTC), дата Ветер
(напр.,м/с)
 
Видим.   Явления Облачность Т
(С)
Тd
(С)
f
(%)
Тe
(С)
Тes
(С)
Комфортность P
(гПа)
Po
(гПа)
Тmin
(С)
Tmax
(С)
R
(мм)
R24
(мм)
S
(см)
12 8.08 СЗ 3 2000 м слабая морось 10/6 450 м
[St As op]
+25.0 +23.6 92 +34 +34 очень
душно
999.6 943.0 +29.0 1
18 8.08 З 2 2000 м слабый дождь 10/6 600 м
[Sc As op]
+24.0 +23.1 95 +32 +32 очень
душно
1002.7 945.7 18
21 8.08 З 1 2000 м слабая морось {дождь} 10/6 600 м
[Sc As op]
+24.0 +22.8 93 +32 +32 очень
душно
1001.4 944.5 20
00 9.08 штиль 0 2000 м дымка 10/5 600 м
[Sc As op]
+24.4 +23.0 92 +32 +32 очень
душно
1001.3 944.7 20
03 9.08 штиль 0 1000 м дымка {морось} 10/6 450 м
[Frnb As op]
+25.0 +24.1 95 +34 +35 очень
душно
1002.9 946.1 +23.5 +29.0 20
06 9.08 ЮЗ 2 2000 м мгла {дождь, морось} 9/6 450 м
[St As trans]
+26.6 +24.9 90 +38 +42 очень
душно
1004.0 947.5 2
12 9.08 штиль 0 1000 м мгла {дождь} 10/8 450 м
[Frnb As op]
+27.8 +25.0 85 +40 +40 очень
душно
1001.5 945.4 +29.4
18 9.08 штиль 0 4000 м мгла 10/5 600 м
[Sc As op]
+27.0 +24.6 87 +38 +38 очень
душно
1003.9 947.4 2
21 9.08 штиль 0 4000 м мгла 10/5 600 м
[Sc As op]
+26.4 +24.4 89 +37 +37 очень
душно
1003.3 946.7 2
00 10.08 штиль 0 4000 м мгла 8/4 900 м
[Sc Ac trans]
+26.0 +22.9 83 +35 +35 очень
душно
1003.0 946.4 2
03 10.08 штиль 0 2000 м мгла 10/8 450 м
[Frnb As op]
+26.6 +24.1 86 +37 +37 очень
душно
1004.5 948.0 +25.6 +29.4 2
06 10.08 З 2 2000 м мгла 10/8 450 м
[Frnb As op]
+28.8 +23.4 73 +39 +40 очень
душно
1004.5 948.4
12 10.08 ЮЗ 3 4000 м мгла 9/6 750 м
[Sc diur, vesp As trans]
+30.4 +23.4 66 +41 +41 опасность
перегрева
1001.6 946.0 +31.6
18 10.08 ЮЗ 2 2000 м мгла 9/6 450 м
[St As trans]
+27.4 +23.1 77 +37 +37 очень
душно
1003.4 947.1
21 10.08 ЮЗ 1 2000 м мгла 9/6 450 м
[St As trans]
+26.4 +23.0 82 +35 +35 очень
душно
1002.7 946.3
00 11.08 ЮЗ 2 2000 м мгла 6/4 750 м
[Sc As trans]
+25.6 +21.8 80 +33 +33 очень
душно
1002.0 945.4
03 11.08 З 3 4000 м 6/6 600 м
[Sc diur, vesp]
+27.0 +21.5 72 +34 +36 очень
душно
1003.0 946.6 +24.8 +31.6
06 11.08 З 3 4000 м 6/5 600 м
[Sc]
+28.6 +21.0 63 +36 +43 очень
душно
1002.2 946.2
12 11.08 ЮЗ 3 4000 м 8/4 900 м
[Sc Ac trans]
+30.4 +21.8 60 +39 +40 очень
душно
998.3 942.9 +30.9
18 11.08 Ю 2 2000 м мгла 9/6 450 м
[St As trans]
+26.4 +23.0 82 +35 +35 очень
душно
1000.4 944.1
21 11.08 ЮЗ 2 2000 м мгла 9/6 450 м
[St As trans]
+25.8 +22.6 83 +34 +34 очень
душно
998.7 942.2
00 12.08 ЮЗ 3 2000 м мгла 9/6 450 м
[St As trans]
+25.2 +21.1 78 +32 +32 очень
душно
997.8 941.6
03 12.08 ЮВ 1 2000 м мгла {морось} 10/8 450 м
[Frnb As op]
+24.4 +23.3 94 +33 +33 очень
душно
999.6 943.1 +23.8 +30.9 0.4
06 12.08 ЮЗ 3 2000 м мгла {морось} 10/8 450 м
[Frnb As op]
+26.6 +22.3 77 +35 +35 очень
душно
999.0 942.9 0.0
12 12.08 ЮЗ 3 4000 м 10/10 750 м
[Sc diur, vesp]
+27.8 +22.4 72 +36 +36 очень
душно
995.9 940.1 +28.6 0.0
18 12.08 Ю 1 4000 м мгла 8/4 900 м
[Sc Ac trans]
+25.6 +23.3 87 +34 +34 очень
душно
997.9 941.6 0.0
21 12.08 Ю 1 4000 м мгла 8/4 900 м
[Sc Ac trans]
+25.0 +23.3 90 +33 +33 очень
душно
996.9 940.5 0.0
00 13.08 Ю 3 4000 м мгла 9/5 750 м
[Sc Ac trans]
+25.0 +22.7 87 +33 +33 очень
душно
996.4 940.2 0.0
03 13.08 Ю 2 2000 м мгла {морось} 9/5 750 м
[Sc As op]
+25.6 +23.0 86 +34 +35 очень
душно
998.5 942.2 +24.0 +28.6 0.6
06 13.08 З 3 4000 м мгла 9/5 750 м
[Sc As op]
+28.4 +21.1 65 +36 +39 очень
душно
998.7 942.9
12 13.08 ЮЗ 3 4000 м 8/8 750 м
[Sc diur, vesp]
+30.0 +20.7 57 +37 +37 очень
душно
996.8 941.2 +31.0
18 13.08 ЮЗ 3 4000 м мгла 6/6 750 м
[Sc]
+27.0 +21.2 71 +34 +34 очень
душно
999.9 943.6
21 13.08 ЮЗ 3 4000 м мгла 6/6 750 м
[Sc]
+26.0 +21.0 74 +33 +33 очень
душно
999.1 942.8
00 14.08 Ю 2 2000 м мгла 6/6 750 м
[Sc]
+25.0 +22.7 87 +33 +33 очень
душно
999.0 942.5
03 14.08 Ю 2 2000 м дымка 9/6 600 м
[Sc As op]
+26.0 +23.4 86 +35 +36 очень
душно
1001.1 944.5 +24.6 +31.0
06 14.08 ЮЗ 1 4000 м мгла 9/5 900 м
[Sc Ac trans]
+29.4 +22.3 66 +38 +44 очень
душно
1000.6 944.9
12 14.08 Ю 3 4000 м мгла 8/8 750 м
[Sc diur, vesp]
+31.0 +22.5 61 +41 +41 опасность
перегрева
996.7 941.6 +31.6
18 14.08 Ю 3 2000 м мгла 4/3 750 м
[Sc Ac trans]
+26.8 +22.8 79 +36 +36 очень
душно
1001.1 1001.0
21 14.08 Ю 2 2000 м мгла 5/3 750 м
[Sc Ac trans]
+25.8 +22.6 83 +34 +34 очень
душно
1000.5 1001.0
00 15.08 штиль 0 2000 м мгла 4/3 750 м
[Sc Ac trans]
+24.0 +22.8 93 +32 +32 очень
душно
1000.4 1000.0
03 15.08 штиль 0 2000 м мгла ясно +26.2 +23.1 83 +35 +43 очень
душно
1001.2 944.9 +24.0 +31.6
06 15.08 штиль 0 4000 м мгла 5/5 600 м
[Sc]
+30.0 +22.3 63 +39 +52 опасность
солнечного
удара
1001.3 945.5

 

Местоположение метеостанции Maharana Pratap Airport (Rajasthan, Индия): широта 24.62 долгота 73.88 высота над уровнем моря 514 м.

В архиве по умолчанию представлена погода в Maharana Pratap Airport за последнюю неделю. Архивные данные за месяц целиком и за предыдущие месяцы, начиная с января 2011 года, Вы можете получить, выбрав интересующий диапазон дат из раскрывающегося списка и нажав кнопку "Ввод!".


*Определитесь, кто Вы:
робот инопланетянин человек

Внимание! Время в таблицах - всемирное. Для получения местного времени необходимо прибавить поправку, которая в Maharana Pratap Airport равна 5.5 ч.

Смотрите также архив погоды в соседних городах и на ближайших метеорологических станциях:

Погода в Chittorgarh (Rajasthan, Индия) (81 км)
Погода в Bhilwara (Rajasthan, Индия) (111 км)
Погода в Mount Abu (Rajasthan, Индия) (117 км)
Погода в Deesa (Gujarat, Индия) (176 км)
Погода в Ratlam (Madhya Pradesh, Индия) (187 км)
Погода в Gandhinagar (Gujarat, Индия) (194 км)
Погода в Jodhpur (Rajasthan, Индия) (206 км)
Погода в Kota (Rajasthan, Индия) (207 км)
Погода в Ahmedabad (Gujarat, Индия) (214 км)
Погода в Ajmer (Rajasthan, Индия) (217 км)

Пояснения к столбцам:

Ветер - указаны скорость ветра в м/с - средняя за 10 мин, порывы в срок и между сроками (в фигурных скобках) и направление, откуда дует ветер: С - северный, СВ - северо-восточный, В - восточный, ЮВ - юго-восточный, Ю - южный, ЮЗ - юго-западный, З - западный, СЗ - северо-западный.
Видимость - горизонтальная дальность видимости в метрах или километрах. При видимости от 1 до 10 км при отсутствии осадков обычно наблюдается дымка, при ухудшении видимости до 1 км и менее - туман. В сухую погоду видимость может ухудшаться дымом, пылью или мглою.
Явления - указаны атмосферные явления, наблюдавшиеся в срок или в последний час перед сроком; фигурными скобками обозначены явления, наблюдавшиеся между сроками (за 1-3 часа до срока); квадратными скобками обозначены град или гололедные отложения с указанием их диаметра в мм.
Облачность - указаны через наклонную черту общая и нижняя облачность в баллах и высота нижней границы облаков в метрах; квадратными скобками обозначены формы облаков: Ci - перистые, Cs - перисто-слоистые, Cc - перисто-кучевые, Ac - высококучевые, As - высокослоистые, Sc - слоисто-кучевые, Ns - слоисто-дождевые, Cu - кучевые, Cb - кучево-дождевые. Подробнее классификацию облаков см. в Атласе облаков (PDF).
T - Температура воздуха - температура, измеренная на высоте 2 м над землей.
Td - Температура точки росы - температура, при понижении до которой содержащийся в воздухе водяной пар достигнет насыщения.
f - Относительная влажность воздуха - влажноcть воздуха, измеренная на высоте 2 м над землей.
Te - Эффективная температура - температура, которую ощущает одетый по сезону человек в тени. Характеристика душности погоды. При расчете учитывается влияние влажности воздуха и скорости ветра на теплоощущения человека.
Tes - Эффективная температура на солнце - температура, которую ощущает человек, с поправкой на солнечный нагрев. Характеристика знойности погоды. Зависит от высоты солнца над горизонтом, облачности и скорости ветра. Ночью, в пасмурную погоду, а также при ветре 12 м/с и более поправка равна нулю.
P - Атмосферное давление - приведенное к уровню моря атмосферное давление.
Po - Атмосферное давление - измеренное на уровне метеостанции атмосферное давление.
Tmin - Минимальная температура - минимум температуры воздуха на высоте 2 м над землей.
Tmax - Максимальная температура - максимум температуры воздуха на высоте 2 м над землей.
R - Количество осадков - Количество выпавших осадков за период времени, мм. При наведении курсора мыши на число - период времени, за который выпало указанное количество осадков.
R24 - Количество осадков - Количество выпавших осадков за 24 часа, мм.
S - Снежный покров - Высота снежного покрова, см. При наведении курсора мыши на число - состояние снежного покрова и степень покрытия местности в баллах.